Location: Carabito
(9.8355°N, 67.9249°W)
Time: 11:48:09
(UTC+00:00)

COSMOS 2428 - Pass Details

Date: 23 May 2024
Orbit: 844 x 856 km, 70.9° (Epoch: 25 June)

Event Time Altitude Azimuth Distance (km) Brightness Sun altitude
Rises 08:57:52 0° 352° (N) 3,396 6.1 -17.1°
Reaches altitude 10° 09:00:23 10° 357° (N) 2,464 5.4 -16.6°
Maximum altitude 09:05:53 53° 73° (ENE) 1,037 3.6 -15.4°
Drops below altitude 10° 09:11:24 10° 150° (SSE) 2,474 5.2 -14.1°
Sets 09:13:54 0° 154° (SSE) 3,411 5.9 -13.6°
